Location: Ammerl�gen
(47.2167°N, 9.6000°E)
Time: 17:48:30
(UTC+00:00)

NOAA 19 - Pass Details

Date: 09 December 2021
Orbit: 841 x 860 km, 99.2° (Epoch: 17 January)

Event Time Altitude Azimuth Distance (km) Brightness Sun altitude
Rises 06:04:36 0° 25° (NNE) 3,435 8.4 -8.5°
Reaches altitude 10° 06:07:23 10° 38° (NE) 2,497 7.8 -8.1°
Maximum altitude 06:11:57 26° 94° (E) 1,635 7.7 -7.4°
Drops below altitude 10° 06:16:30 10° 149° (SSE) 2,489 8.7 -6.7°
Sets 06:19:16 0° 162° (SSE) 3,422 9.1 -6.3°
